GW5679 Weather Reports


Display with metric or nautical units.
time (UTC)temp
F
wind
direction
speed
MPH
gust
MPH
rain 1hr
in
rain 24hr
in
rain mn
in
humidity
%
barometer
mb
20260831085437 82 183 1.0 2.0 0.00 0.00 0.00 81 1014.0
20260831084936 82 198 2.0 3.0 0.00 0.00 0.00 81 1014.1
20260831084433 82 170 0.0 3.0 0.00 0.00 0.00 81 1014.0
20260831083929 82 173 2.0 3.0 0.00 0.00 0.00 81 1013.9
20260831083424 82 156 3.0 3.0 0.00 0.00 0.00 81 1014.1
20260831082923 82 156 2.0 3.0 0.00 0.00 0.00 81 1014.1
20260831082423 82 210 2.0 3.0 0.00 0.00 0.00 81 1014.1
20260831081919 82 164 1.0 2.0 0.00 0.00 0.00 81 1014.2
20260831081414 82 163 0.0 2.0 0.00 0.00 0.00 80 1013.9
20260831080910 82 208 2.0 3.0 0.00 0.00 0.00 81 1014.1
20260831080405 82 190 1.0 3.0 0.00 0.00 0.00 81 1014.1
20260831075900 82 193 1.0 2.0 0.00 0.00 0.00 81 1014.2
20260831075355 82 195 1.0 2.0 0.00 0.00 0.00 81 1014.2
20260831074851 82 170 0.0 1.0 0.00 0.00 0.00 81 1014.0
20260831074349 82 155 0.0 0.0 0.00 0.00 0.00 81 1014.1
20260831073845 82 156 1.0 2.0 0.00 0.00 0.00 81 1013.9
20260831073344 82 163 1.0 2.0 0.00 0.00 0.00 80 1013.9
20260831072839 82 171 0.0 2.0 0.00 0.00 0.00 80 1014.0
20260831072335 82 175 0.0 1.0 0.00 0.00 0.00 80 1014.0
20260831071831 82 165 2.0 4.0 0.00 0.00 0.00 80 1014.0
20260831071330 83 183 0.0 4.0 0.00 0.00 0.00 79 1014.0
20260831070825 82 171 3.0 4.0 0.00 0.00 0.00 80 1014.2
20260831070324 82 185 1.0 2.0 0.00 0.00 0.00 80 1014.1
20260831065823 83 171 1.0 3.0 0.00 0.00 0.00 79 1014.1
20260831065321 83 173 2.0 4.0 0.00 0.00 0.00 79 1014.2
20260831064817 83 197 2.0 3.0 0.00 0.00 0.00 79 1014.1
20260831064312 83 171 2.0 3.0 0.00 0.00 0.00 79 1014.4
20260831063808 83 177 3.0 3.0 0.00 0.00 0.00 79 1014.2
20260831063303 83 166 4.0 6.0 0.00 0.00 0.00 79 1014.3
20260831062803 83 184 2.0 3.0 0.00 0.00 0.00 79 1014.4
20260831062258 83 132 4.0 4.0 0.00 0.00 0.00 79 1014.3
20260831061756 83 181 2.0 4.0 0.00 0.00 0.00 80 1014.4
20260831061251 83 161 5.0 6.0 0.00 0.00 0.00 79 1014.4
20260831060748 83 131 2.0 8.0 0.00 0.00 0.00 80 1014.4
20260831060247 83 195 3.0 6.0 0.00 0.00 0.00 80 1014.4
20260831055747 83 192 4.0 4.0 0.00 0.00 0.00 80 1014.4
20260831055242 83 200 4.0 6.0 0.00 0.00 0.00 79 1014.4
20260831054737 83 205 2.0 3.0 0.00 0.00 0.00 79 1014.5
20260831054232 83 140 3.0 4.0 0.00 0.00 0.00 79 1014.5
20260831053731 83 186 2.0 4.0 0.00 0.00 0.00 79 1014.5
20260831053229 83 172 2.0 3.0 0.00 0.00 0.00 79 1014.4
20260831052724 83 160 1.0 3.0 0.00 0.00 0.00 79 1014.3
20260831052223 83 165 3.0 3.0 0.00 0.00 0.00 80 1014.5
20260831051721 83 189 3.0 4.0 0.00 0.00 0.00 79 1014.5
20260831051220 83 183 4.0 6.0 0.00 0.00 0.00 79 1014.3
20260831050720 83 164 5.0 7.0 0.00 0.00 0.00 79 1014.5
20260831050219 83 180 5.0 7.0 0.00 0.00 0.00 79 1014.2
20260831045715 83 198 3.0 6.0 0.00 0.00 0.00 79 1014.1
20260831045210 84 182 2.0 7.0 0.00 0.00 0.00 79 1014.3
20260831044709 84 185 3.0 4.0 0.00 0.00 0.00 78 1014.4
20260831044205 84 190 3.0 6.0 0.00 0.00 0.00 78 1014.1
20260831043700 84 188 2.0 3.0 0.00 0.00 0.00 78 1014.2
20260831043155 84 188 2.0 6.0 0.00 0.00 0.00 78 1014.1
20260831042654 84 142 5.0 8.0 0.00 0.00 0.00 77 1014.2
20260831042149 84 152 3.0 6.0 0.00 0.00 0.00 77 1014.1
20260831041644 84 164 5.0 8.0 0.00 0.00 0.00 77 1014.0
20260831041138 84 186 6.0 8.0 0.00 0.00 0.00 77 1014.0
20260831040634 84 184 7.0 9.0 0.00 0.00 0.00 77 1014.0
20260831040132 84 195 4.0 8.0 0.00 0.00 0.00 76 1014.1
20260831035631 85 158 6.0 8.0 0.00 0.00 0.00 76 1014.0
20260831035126 85 200 4.0 4.0 0.00 0.00 0.00 76 1014.0
20260831034625 85 134 2.0 6.0 0.00 0.00 0.00 76 1014.1
20260831034120 85 144 7.0 8.0 0.00 0.00 0.00 76 1013.9
20260831033616 85 166 5.0 7.0 0.00 0.00 0.00 75 1013.9
20260831033111 85 138 5.0 9.0 0.00 0.00 0.00 75 1013.7
20260831032610 85 151 4.0 6.0 0.00 0.00 0.00 75 1013.8
20260831032106 85 173 5.0 6.0 0.00 0.00 0.00 74 1013.8
20260831031606 85 142 4.0 8.0 0.00 0.00 0.00 74 1013.6
20260831031100 85 146 4.0 8.0 0.00 0.00 0.00 74 1013.6
20260831030559 86 110 6.0 10.0 0.00 0.00 0.00 73 1013.6
20260831030058 86 197 6.0 8.0 0.00 0.00 0.00 72 1013.4
20260831025556 86 175 8.0 11.0 0.00 0.00 0.00 72 1013.3
20260831025051 86 155 7.0 10.0 0.00 0.00 0.00 71 1013.3
20260831024548 86 172 7.0 9.0 0.00 0.00 0.00 71 1013.2
20260831024046 86 130 5.0 9.0 0.00 0.00 0.00 71 1013.3
20260831023545 86 114 5.0 10.0 0.00 0.00 0.00 70 1013.1
20260831023039 87 146 7.0 9.0 0.00 0.00 0.00 70 1012.9
20260831022539 87 143 4.0 7.0 0.00 0.00 0.00 69 1013.1
20260831022034 87 147 6.0 11.0 0.00 0.00 0.00 69 1013.2
20260831021532 87 153 7.0 10.0 0.00 0.00 0.00 69 1013.0
20260831021029 87 159 2.0 8.0 0.00 0.00 0.00 68 1012.8
20260831020524 87 144 5.0 7.0 0.00 0.00 0.00 67 1012.6
20260831020019 87 163 6.0 9.0 0.00 0.00 0.00 67 1012.9
20260831015514 87 143 4.0 10.0 0.00 0.00 0.00 66 1012.5
20260831015009 87 163 9.0 11.0 0.00 0.00 0.00 66 1012.7
20260831014458 88 161 10.0 10.0 0.00 0.00 0.00 65 1012.6
20260831013953 88 152 6.0 10.0 0.00 0.00 0.00 64 1012.7
20260831013449 88 142 7.0 9.0 0.00 0.00 0.00 63 1012.7
20260831012943 89 169 7.0 8.0 0.00 0.00 0.00 62 1012.8
20260831012438 89 143 7.0 10.0 0.00 0.00 0.00 62 1012.4
20260831011932 89 146 5.0 9.0 0.00 0.00 0.00 61 1012.6
20260831011427 89 159 6.0 9.0 0.00 0.00 0.00 61 1012.4
20260831010923 90 156 5.0 7.0 0.00 0.00 0.00 60 1012.5
20260831010417 90 120 5.0 7.0 0.00 0.00 0.00 59 1012.4
20260831005913 90 188 4.0 4.0 0.00 0.00 0.00 59 1012.5
20260831005409 90 128 4.0 9.0 0.00 0.00 0.00 58 1012.4
20260831004903 91 149 6.0 8.0 0.00 0.00 0.00 57 1012.5
20260831004400 91 157 9.0 13.0 0.00 0.00 0.00 56 1012.4
20260831003855 91 132 12.0 13.0 0.00 0.00 0.00 56 1012.3
20260831003351 92 148 4.0 7.0 0.00 0.00 0.00 55 1012.2
20260831002850 91 163 4.0 7.0 0.00 0.00 0.00 55 1012.3
20260831002349 92 136 5.0 10.0 0.00 0.00 0.00 53 1012.0
20260831001845 92 139 7.0 9.0 0.00 0.00 0.00 53 1012.3
20260831001339 93 149 3.0 10.0 0.00 0.00 0.00 51 1012.2
20260831000837 93 140 5.0 7.0 0.00 0.00 0.00 50 1012.1
20260831000340 94 105 5.0 7.0 0.00 0.00 0.00 49 1012.2
20260830235836 94 120 8.0 11.0 0.00 0.00 0.00 49 1012.2
20260830235331 94 136 6.0 11.0 0.00 0.00 0.00 48 1012.2
20260830234826 95 131 6.0 10.0 0.00 0.00 0.00 48 1012.2
20260830234322 95 133 8.0 14.0 0.00 0.00 0.00 46 1012.0
20260830233817 95 168 4.0 10.0 0.00 0.00 0.00 46 1012.1
20260830233313 95 156 6.0 9.0 0.00 0.00 0.00 46 1012.2
20260830232808 96 114 7.0 10.0 0.00 0.00 0.00 45 1012.1
20260830232306 96 128 4.0 9.0 0.00 0.00 0.00 46 1012.0
20260830231801 96 144 8.0 10.0 0.00 0.00 0.00 45 1012.0
20260830231300 96 144 5.0 16.0 0.00 0.00 0.00 45 1011.9
20260830230755 97 144 9.0 11.0 0.00 0.00 0.00 45 1011.9
20260830230250 96 133 5.0 9.0 0.00 0.00 0.00 45 1011.8
20260830225749 96 137 7.0 15.0 0.00 0.00 0.00 45 1011.8
20260830225245 97 171 5.0 11.0 0.00 0.00 0.00 42 1011.9
20260830224743 98 146 6.0 13.0 0.00 0.00 0.00 42 1011.8
20260830224239 99 168 9.0 10.0 0.00 0.00 0.00 40 1011.9
20260830223736 98 184 4.0 9.0 0.00 0.00 0.00 40 1012.0
20260830223231 98 152 5.0 13.0 0.00 0.00 0.00 41 1011.8
20260830222726 98 180 5.0 8.0 0.00 0.00 0.00 40 1011.8
20260830222221 98 139 4.0 8.0 0.00 0.00 0.00 40 1011.7
20260830221717 99 156 4.0 10.0 0.00 0.00 0.00 40 1011.9
20260830221214 99 172 7.0 10.0 0.00 0.00 0.00 39 1011.6
20260830220708 99 141 3.0 8.0 0.00 0.00 0.00 39 1011.9
20260830220207 101 186 7.0 8.0 0.00 0.00 0.00 37 1011.8
20260830215706 99 170 1.0 1.0 0.00 0.00 0.00 38 1011.7
20260830215201 100 163 4.0 8.0 0.00 0.00 0.00 38 1012.1
20260830214657 100 147 6.0 8.0 0.00 0.00 0.00 39 1011.8
20260830214156 100 165 7.0 10.0 0.00 0.00 0.00 38 1012.1
20260830213655 99 170 1.0 6.0 0.00 0.00 0.00 40 1011.8
20260830213151 99 188 6.0 13.0 0.00 0.00 0.00 39 1012.2
20260830212647 99 188 7.0 9.0 0.00 0.00 0.00 38 1012.2
20260830212142 99 178 4.0 7.0 0.00 0.00 0.00 39 1012.2
20260830211637 100 110 5.0 6.0 0.00 0.00 0.00 38 1012.3
20260830211136 99 157 3.0 7.0 0.00 0.00 0.00 39 1012.5
20260830210632 98 167 7.0 11.0 0.00 0.00 0.00 39 1012.4
20260830210131 98 171 0.0 3.0 0.00 0.00 0.00 40 1012.6
20260830205628 98 170 1.0 2.0 0.00 0.00 0.00 41 1012.6
20260830205124 97 146 8.0 10.0 0.00 0.00 0.00 41 1012.7
20260830204623 97 140 5.0 7.0 0.00 0.00 0.00 40 1012.8
20260830204122 98 183 10.0 11.0 0.00 0.00 0.00 39 1012.6
20260830203619 98 122 3.0 7.0 0.00 0.00 0.00 39 1012.9
20260830203119 99 191 6.0 8.0 0.00 0.00 0.00 38 1013.1
20260830202618 100 184 7.0 8.0 0.00 0.00 0.00 37 1013.0
20260830202114 99 221 1.0 3.0 0.00 0.00 0.00 40 1012.9
20260830201613 99 153 2.0 3.0 0.00 0.00 0.00 40 1013.1
20260830201108 99 151 5.0 7.0 0.00 0.00 0.00 38 1013.1
20260830200604 100 146 6.0 7.0 0.00 0.00 0.00 37 1013.3
20260830200103 100 188 6.0 10.0 0.00 0.00 0.00 37 1013.4
20260830195559 100 198 3.0 7.0 0.00 0.00 0.00 37 1013.3
20260830195056 98 154 2.0 4.0 0.00 0.00 0.00 40 1013.5
20260830194551 96 129 1.0 2.0 0.00 0.00 0.00 43 1013.7
20260830194050 97 161 0.0 4.0 0.00 0.00 0.00 42 1013.6
20260830193549 99 158 1.0 3.0 0.00 0.00 0.00 41 1013.7
20260830193045 100 187 0.0 8.0 0.00 0.00 0.00 39 1013.9
20260830192541 99 186 5.0 7.0 0.00 0.00 0.00 38 1014.0
20260830192041 100 160 2.0 4.0 0.00 0.00 0.00 39 1014.0
20260830191536 99 150 1.0 7.0 0.00 0.00 0.00 41 1014.2
20260830191031 98 135 2.0 6.0 0.00 0.00 0.00 43 1014.2
20260830190527 97 67 2.0 3.0 0.00 0.00 0.00 43 1014.3
20260830190022 98 151 0.0 7.0 0.00 0.00 0.00 42 1014.5
20260830185515 99 174 4.0 6.0 0.00 0.00 0.00 41 1014.2
20260830185011 100 128 2.0 3.0 0.00 0.00 0.00 40 1014.4
20260830184510 99 135 0.0 2.0 0.00 0.00 0.00 42 1014.6
20260830184005 98 61 3.0 3.0 0.00 0.00 0.00 42 1014.6
20260830183505 96 158 3.0 4.0 0.00 0.00 0.00 45 1014.4
20260830183001 98 294 4.0 4.0 0.00 0.00 0.00 43 1014.8
20260830182456 98 249 2.0 3.0 0.00 0.00 0.00 42 1014.9
20260830181952 98 159 2.0 2.0 0.00 0.00 0.00 42 1014.9
20260830181448 96 179 1.0 1.0 0.00 0.00 0.00 45 1015.0
20260830180942 95 42 1.0 3.0 0.00 0.00 0.00 46 1015.2
20260830180441 95 155 5.0 6.0 0.00 0.00 0.00 47 1015.2
20260830175940 96 157 3.0 7.0 0.00 0.00 0.00 47 1015.2
20260830175435 97 121 4.0 10.0 0.00 0.00 0.00 46 1015.4
20260830174931 97 228 2.0 3.0 0.00 0.00 0.00 45 1015.5
20260830174426 95 192 1.0 3.0 0.00 0.00 0.00 48 1015.6
20260830173921 94 134 0.0 1.0 0.00 0.00 0.00 50 1015.9
20260830173416 94 166 0.0 3.0 0.00 0.00 0.00 51 1015.8
20260830172912 96 201 4.0 7.0 0.00 0.00 0.00 48 1015.9
20260830172408 95 247 3.0 6.0 0.00 0.00 0.00 48 1015.9
20260830171903 95 140 3.0 4.0 0.00 0.00 0.00 50 1016.0
20260830171400 96 195 1.0 3.0 0.00 0.00 0.00 48 1015.9
20260830170859 96 167 2.0 3.0 0.00 0.00 0.00 46 1015.9
20260830170359 95 195 2.0 3.0 0.00 0.00 0.00 49 1015.9
20260830165857 95 164 0.0 3.0 0.00 0.00 0.00 50 1015.7
20260830165354 94 134 0.0 2.0 0.00 0.00 0.00 51 1016.0
20260830164850 93 196 3.0 4.0 0.00 0.00 0.00 52 1016.1
20260830164345 94 190 4.0 7.0 0.00 0.00 0.00 51 1016.1
20260830163842 95 160 3.0 6.0 0.00 0.00 0.00 51 1016.0
20260830163337 94 125 2.0 3.0 0.00 0.00 0.00 50 1016.1
20260830162837 94 161 1.0 3.0 0.00 0.00 0.00 51 1016.1
20260830162334 92 76 2.0 3.0 0.00 0.00 0.00 53 1016.1
20260830161834 92 87 3.0 4.0 0.00 0.00 0.00 54 1016.1
20260830161333 92 77 2.0 2.0 0.00 0.00 0.00 53 1016.1
20260830160829 90 162 2.0 3.0 0.00 0.00 0.00 55 1016.2
20260830160324 91 177 2.0 4.0 0.00 0.00 0.00 54 1016.3
20260830155819 94 143 2.0 4.0 0.00 0.00 0.00 53 1016.2
20260830155316 93 164 0.0 2.0 0.00 0.00 0.00 54 1016.2
20260830154816 92 149 4.0 4.0 0.00 0.00 0.00 55 1016.3
20260830154311 91 159 1.0 2.0 0.00 0.00 0.00 59 1016.4
20260830153808 92 211 2.0 3.0 0.00 0.00 0.00 54 1016.2
20260830153303 92 168 1.0 3.0 0.00 0.00 0.00 53 1016.0
20260830152801 92 156 2.0 4.0 0.00 0.00 0.00 57 1016.2
20260830152256 91 144 3.0 3.0 0.00 0.00 0.00 60 1016.2
20260830151756 89 149 0.0 2.0 0.00 0.00 0.00 62 1016.1
20260830151255 90 173 4.0 7.0 0.00 0.00 0.00 61 1016.1
20260830150751 89 133 1.0 3.0 0.00 0.00 0.00 65 1016.1
20260830150250 89 143 3.0 7.0 0.00 0.00 0.00 66 1016.1
20260830145745 89 185 2.0 6.0 0.00 0.00 0.00 66 1016.2
20260830145240 88 113 0.0 2.0 0.00 0.00 0.00 69 1016.1
20260830144735 88 176 3.0 3.0 0.00 0.00 0.00 66 1016.1
20260830144232 89 156 5.0 7.0 0.00 0.00 0.00 64 1016.0
20260830143727 89 136 0.0 0.0 0.00 0.00 0.00 68 1016.3
20260830143225 89 148 2.0 2.0 0.00 0.00 0.00 69 1016.1
20260830142721 88 141 2.0 2.0 0.00 0.00 0.00 71 1016.2
20260830142216 87 211 2.0 3.0 0.00 0.00 0.00 73 1016.2
20260830141711 86 195 1.0 2.0 0.00 0.00 0.00 74 1016.3
20260830141206 86 135 1.0 3.0 0.00 0.00 0.00 74 1016.2
20260830140701 86 182 3.0 4.0 0.00 0.00 0.00 74 1016.2
20260830140156 86 190 0.0 0.0 0.00 0.00 0.00 75 1016.5
20260830135651 86 166 1.0 1.0 0.00 0.00 0.00 76 1016.1
20260830135146 86 207 3.0 3.0 0.00 0.00 0.00 76 1015.9
20260830134642 85 189 2.0 6.0 0.00 0.00 0.00 77 1015.9
20260830134137 85 196 1.0 3.0 0.00 0.00 0.00 77 1015.9
20260830133632 84 143 0.0 2.0 0.00 0.00 0.00 78 1015.6
20260830133127 84 196 0.0 2.0 0.00 0.00 0.00 78 1015.7
20260830132624 84 164 1.0 2.0 0.00 0.00 0.00 79 1015.8
20260830132119 84 176 0.0 1.0 0.00 0.00 0.00 80 1015.7
20260830131618 83 205 2.0 2.0 0.00 0.00 0.00 80 1015.6
20260830131113 83 161 0.0 0.0 0.00 0.00 0.00 81 1015.6
20260830130608 82 161 0.0 0.0 0.00 0.00 0.00 82 1015.6
20260830125557 82 181 0.0 0.0 0.00 0.00 0.00 84 1015.7
20260830125056 81 160 0.0 0.0 0.00 0.00 0.00 85 1015.5
20260830124555 81 171 0.0 0.0 0.00 0.00 0.00 85 1015.3
20260830124051 80 181 0.0 0.0 0.00 0.00 0.00 86 1015.4
20260830123548 80 177 0.0 0.0 0.00 0.00 0.00 86 1015.4
20260830123043 80 168 0.0 0.0 0.00 0.00 0.00 86 1015.5
20260830122539 80 161 0.0 0.0 0.00 0.00 0.00 86 1015.4
20260830122035 80 146 0.0 0.0 0.00 0.00 0.00 86 1015.3
20260830121531 80 153 0.0 0.0 0.00 0.00 0.00 86 1015.2
20260830121030 80 145 0.0 0.0 0.00 0.00 0.00 86 1015.2
20260830120525 80 169 0.0 0.0 0.00 0.00 0.00 87 1015.2
20260830120023 80 157 0.0 0.0 0.00 0.00 0.00 87 1015.2
20260830115518 79 144 0.0 0.0 0.00 0.00 0.00 87 1015.2
20260830115013 80 159 0.0 0.0 0.00 0.00 0.00 86 1015.2
20260830114510 80 153 0.0 0.0 0.00 0.00 0.00 86 1015.3
20260830114009 80 162 0.0 0.0 0.00 0.00 0.00 86 1015.2
20260830113504 80 156 0.0 0.0 0.00 0.00 0.00 86 1015.2
20260830113000 80 158 0.0 0.0 0.00 0.00 0.00 86 1015.2
20260830112456 80 164 0.0 0.0 0.00 0.00 0.00 86 1015.0
20260830111952 80 164 0.0 1.0 0.00 0.00 0.00 85 1015.1
20260830111453 80 171 2.0 3.0 0.00 0.00 0.00 85 1014.9
20260830110948 80 157 1.0 2.0 0.00 0.00 0.00 85 1015.0
20260830110443 80 161 2.0 3.0 0.00 0.00 0.00 85 1015.0
20260830105943 80 172 1.0 2.0 0.00 0.00 0.00 86 1014.9
20260830105439 80 168 1.0 2.0 0.00 0.00 0.00 85 1014.8
20260830104935 80 166 1.0 2.0 0.00 0.00 0.00 86 1014.9
20260830104431 80 170 0.0 2.0 0.00 0.00 0.00 85 1014.8
20260830103926 80 182 2.0 3.0 0.00 0.00 0.00 85 1014.7
20260830103421 80 179 2.0 2.0 0.00 0.00 0.00 85 1014.7
20260830102919 80 184 1.0 2.0 0.00 0.00 0.00 85 1014.9
20260830102415 80 154 1.0 3.0 0.00 0.00 0.00 85 1014.8
20260830101912 81 180 2.0 2.0 0.00 0.00 0.00 85 1014.7
20260830101406 81 171 2.0 3.0 0.00 0.00 0.00 85 1014.7
20260830100906 81 178 2.0 4.0 0.00 0.00 0.00 85 1014.6
20260830100405 81 169 3.0 3.0 0.00 0.00 0.00 85 1014.6
20260830095904 80 164 1.0 2.0 0.00 0.00 0.00 85 1014.6
20260830095400 80 171 0.0 0.0 0.00 0.00 0.00 85 1014.6
20260830094856 80 169 0.0 0.0 0.00 0.00 0.00 85 1014.6
20260830094352 80 170 0.0 0.0 0.00 0.00 0.00 85 1014.5
20260830093848 80 170 1.0 2.0 0.00 0.00 0.00 85 1014.5
20260830093343 81 163 1.0 1.0 0.00 0.00 0.00 85 1014.6
20260830092838 81 172 0.0 1.0 0.00 0.00 0.00 85 1014.4
20260830092334 81 180 0.0 3.0 0.00 0.00 0.00 84 1014.5
20260830091830 81 196 2.0 3.0 0.00 0.00 0.00 84 1014.5
20260830091330 81 184 2.0 3.0 0.00 0.00 0.00 84 1014.4
20260830090829 81 207 2.0 3.0 0.00 0.00 0.00 84 1014.6
20260830090324 81 168 1.0 2.0 0.00 0.00 0.00 84 1014.6
20260830085818 81 186 2.0 3.0 0.00 0.00 0.00 84 1014.6